sat.trackr.live / text

‹ back to catalog

KUIPER-00043

NORAD 64504 · 2025-134E

PAYLOAD ACTIVE UNKNOWN

§ Identity

Operator
Country
US
Launch date
2025-06-23
Launch site
AFETR
Launch vehicle
Mass (kg)
RCS (m²)

External: N2YO · Heavens-Above · Gunter

§ Orbital elements

Epoch: 2026-09-21T21:44:17.105856Z

Period
97.30 min
Inclination
51.9019°
Eccentricity
0.0000752
Mean motion
14.79931465 rev/d
Perigee alt
629.0 km
Apogee alt
630.1 km
Semi-major
7,007.7 km
B*
2.4709e-4
RAAN
85.3943°
Arg perigee
116.5664°
Mean anomaly
243.5375°
Rev number
6,913

§ Raw data

KUIPER-000431 64504U 25134E   26264.90575354  .00001663  00000+0  24709-3 0  99922 64504  51.9019  85.3943 0000752 116.5664 243.5375 14.79931465 69138

JSON: /api/v1/satellites/64504 · /tle

For live sub-satellite position, see the globe view (requires WebGL).

§ Visibility from observer

Set your observer location to see the next 7 days of passes ≥ 10°. The values pass through the URL so the page stays shareable.

No JS? Fill the form by hand. The geolocation button needs JavaScript.